TimeEDT,TemperatureF,Dew PointF,Humidity,Sea Level PressureIn,VisibilityMPH,Wind Direction,Wind SpeedMPH,Gust SpeedMPH,PrecipitationIn,Events,Conditions,WindDirDegrees,DateUTC
12:53 AM,34.0,19.9,56,29.78,10.0,West,5.8,-,N/A,,Overcast,280,2013-03-24 04:53:00
1:53 AM,34.0,21.0,59,29.80,10.0,WNW,6.9,-,N/A,,Overcast,290,2013-03-24 05:53:00
2:53 AM,34.0,21.0,59,29.80,10.0,WNW,5.8,-,N/A,,Overcast,300,2013-03-24 06:53:00
3:53 AM,34.0,21.0,59,29.78,10.0,WNW,5.8,-,N/A,,Overcast,290,2013-03-24 07:53:00
4:53 AM,34.0,21.0,59,29.78,10.0,NNW,3.5,-,N/A,,Overcast,330,2013-03-24 08:53:00
5:53 AM,33.1,21.0,61,29.79,10.0,NNW,3.5,-,N/A,,Overcast,340,2013-03-24 09:53:00
6:46 AM,33.8,21.2,60,29.78,10.0,Calm,Calm,-,N/A,,Overcast,0,2013-03-24 10:46:00
6:53 AM,33.1,21.0,61,29.81,10.0,WNW,3.5,-,N/A,,Overcast,300,2013-03-24 10:53:00
7:53 AM,34.0,21.0,59,29.85,10.0,West,3.5,-,N/A,,Overcast,260,2013-03-24 11:53:00
8:25 AM,33.8,21.2,60,29.83,10.0,North,3.5,-,N/A,,Overcast,350,2013-03-24 12:25:00
8:53 AM,34.0,21.9,61,29.86,10.0,North,4.6,-,N/A,,Overcast,350,2013-03-24 12:53:00
9:53 AM,35.1,21.9,59,29.86,10.0,North,10.4,-,N/A,,Overcast,350,2013-03-24 13:53:00
10:53 AM,36.0,21.0,55,29.84,10.0,North,10.4,-,N/A,,Overcast,350,2013-03-24 14:53:00
11:53 AM,39.0,21.0,49,29.84,10.0,North,9.2,-,N/A,,Overcast,350,2013-03-24 15:53:00
12:53 PM,39.0,21.0,49,29.84,10.0,Variable,5.8,-,N/A,,Overcast,0,2013-03-24 16:53:00
1:53 PM,39.9,19.9,45,29.82,10.0,NW,12.7,18.4,N/A,,Overcast,320,2013-03-24 17:53:00
2:53 PM,42.1,21.0,43,29.81,10.0,NW,6.9,-,N/A,,Overcast,320,2013-03-24 18:53:00
3:53 PM,42.1,21.0,43,29.79,10.0,North,10.4,-,N/A,,Mostly Cloudy,10,2013-03-24 19:53:00
4:53 PM,42.1,21.0,43,29.77,10.0,North,12.7,18.4,N/A,,Mostly Cloudy,10,2013-03-24 20:53:00
5:53 PM,39.9,19.9,45,29.78,10.0,North,11.5,-,N/A,,Overcast,350,2013-03-24 21:53:00
6:53 PM,37.9,19.9,48,29.80,10.0,North,10.4,-,N/A,,Mostly Cloudy,10,2013-03-24 22:53:00
7:53 PM,34.0,19.9,56,29.82,10.0,North,4.6,-,N/A,,Clear,360,2013-03-24 23:53:00
8:53 PM,28.0,19.9,72,29.82,10.0,Calm,Calm,-,N/A,,Clear,0,2013-03-25 00:53:00
9:53 PM,24.1,19.0,81,29.83,10.0,Calm,Calm,-,N/A,,Partly Cloudy,0,2013-03-25 01:53:00
10:53 PM,27.0,21.0,78,29.81,10.0,NE,3.5,-,N/A,,Clear,40,2013-03-25 02:53:00
11:53 PM,23.0,19.0,85,29.81,10.0,Calm,Calm,-,N/A,,Clear,0,2013-03-25 03:53:00